sat.trackr.live / text

‹ back to catalog

STARLINK-30517

NORAD 57995 · 2023-153E

PAYLOAD ACTIVE UNKNOWN

§ Identity

Operator
Country
US
Launch date
2023-10-05
Launch site
AFETR
Launch vehicle
Mass (kg)
RCS (m²)

Purposes: comms

External: N2YO · Heavens-Above · Gunter

§ Orbital elements

Epoch: 2026-05-24T23:55:40.076832Z

Period
94.27 min
Inclination
43.0023°
Eccentricity
0.0001263
Mean motion
15.27567257 rev/d
Perigee alt
482.2 km
Apogee alt
484.0 km
Semi-major
6,861.2 km
B*
3.9755e-5
RAAN
356.3617°
Arg perigee
262.8353°
Mean anomaly
97.2355°
Rev number
14,656

§ Raw data

STARLINK-305171 57995U 23153E   26144.99699163  .00000832  00000+0  39755-4 0  99932 57995  43.0023 356.3617 0001263 262.8353  97.2355 15.27567257146561

JSON: /api/v1/satellites/57995 · /tle

For live sub-satellite position, see the globe view (requires WebGL).

§ Visibility from observer

Set your observer location to see the next 7 days of passes ≥ 10°. The values pass through the URL so the page stays shareable.

No JS? Fill the form by hand. The geolocation button needs JavaScript.